Meteo Giornale » Osservazioni meteo Gran Bretagna » Liverpool

ore: 10:50 - Osservazioni Meteo Liverpool
Lat. 53° 20' N Lon. 2° 51' W Alt. 26 metri s.l.m.

molto_nuvoloso Europe/London

24 °C

Molto Nuvoloso

Temp. 24 Ore

18 °C

24 °C

Sud

13 Km/h

Dew point 18 °C

Umidità 69 %

Visibilità  10 Km

Il sole sorge alle ore 05:36

Il sole tramonta alle ore 20:57

Data e Ora Cielo e Fenomeni T °C DP °C Um. % Pres. hPa Vis. km Vento km/h
Oggi h: 10:50 molto_nuvoloso Molto Nuvoloso 24 18 69 1018 10 S 13
Oggi h: 10:20 molto_nuvoloso Molto Nuvoloso 24 18 69 1017 10 S 13
Oggi h: 09:50 molto_nuvoloso Molto Nuvoloso 23 18 73 1018 10 S 13
Oggi h: 09:20 molto_nuvoloso Molto Nuvoloso 23 18 73 1018 10 S 14.8
Oggi h: 08:50 molto_nuvoloso Molto Nuvoloso 22 18 78 1017 10 S 14.8
Oggi h: 08:20 molto_nuvoloso Molto Nuvoloso 22 19 83 1017 10 S 13
Oggi h: 07:50 molto_nuvoloso Molto Nuvoloso 21 18 82 1017 10 S 13
Oggi h: 06:50 molto_nuvoloso Molto Nuvoloso 20 18 88 1017 10 S 13
Oggi h: 06:20 molto_nuvoloso Molto Nuvoloso 20 18 88 1017 10 S 11.1
Oggi h: 05:50 molto_nuvoloso Molto Nuvoloso 20 18 88 1017 10 S/SE 9.3
Oggi h: 05:20 coperto Coperto 20 18 88 1017 10 S 7.4
Oggi h: 04:50 coperto Coperto 19 19 100 1017 10 N 5.5
Oggi h: 04:20 coperto Coperto 18 17 93 1017 10 N 5.5
Oggi h: 03:50 coperto Coperto 18 17 93 1017 10 N 5.5
Oggi h: 03:20 coperto Coperto 18 17 93 1017 10 N 5.5
Oggi h: 02:50 molto_nuvoloso Molto Nuvoloso 18 17 93 1017 10 N 3.7
Oggi h: 02:20 coperto Coperto 19 16 82 1017 10 N 5.5
Oggi h: 01:50 coperto Coperto 19 16 82 1017 10 N 5.5
Oggi h: 01:20 coperto Coperto 19 16 82 1017 10 N 5.5
Oggi h: 00:50 molto_nuvoloso Molto Nuvoloso 19 16 82 1017 10 N 3.7
Oggi h: 00:20 coperto Coperto 19 16 82 1017 10 N 5.5
Ieri h: 23:50 molto_nuvoloso Molto Nuvoloso 20 17 82 1017 10 N 7.4
Ieri h: 23:20 nuvoloso Nuvoloso 19 16 82 1017 10 N 5.5
Ieri h: 22:50 nuvoloso Nuvoloso 19 16 82 1017 10 N 5.5
Ieri h: 22:20 nuvoloso Nuvoloso 20 16 77 1017 10 N 7.4
Ieri h: 21:50 molto_nuvoloso Molto Nuvoloso 20 16 77 1016 10 N 5.5
Ieri h: 21:20 molto_nuvoloso Molto Nuvoloso 19 16 82 1016 10 N/NE 7.4
Ieri h: 20:50 molto_nuvoloso Molto Nuvoloso 19 16 82 1016 10 N 5.5
Ieri h: 20:20 molto_nuvoloso Molto Nuvoloso 21 16 73 1016 10 N 7.4
Ieri h: 19:50 nuvoloso Nuvoloso 21 16 73 1016 10 N 5.5
Ieri h: 19:20 nuvoloso Nuvoloso 22 16 68 1015 10 NO 9.3
Ieri h: 18:50 nuvoloso Nuvoloso 22 16 68 1015 10 NO 11.1
Ieri h: 18:20 nuvoloso Nuvoloso 22 16 68 1015 10 N/NO 9.3
Ieri h: 17:50 nuvoloso Nuvoloso 22 16 68 1015 10 N/NO 9.3
Ieri h: 17:20 nuvoloso Nuvoloso 24 17 64 1015 10 O/NO 11.1
Ieri h: 16:50 nuvoloso Nuvoloso 22 16 68 1015 10 O/NO 13
Ieri h: 15:50 nuvoloso Nuvoloso 23 16 64 1015 10 SO 11.1
Ieri h: 15:20 nuvoloso Nuvoloso 23 16 64 1015 10 S/SO 14.8
Ieri h: 14:50 nuvoloso Nuvoloso 23 16 64 1015 10 S/SO 13
Ieri h: 14:20 coperto Coperto 21 16 73 1015 10 S 16.7
Ieri h: 13:50 coperto Coperto 21 16 73 1015 10 S 13
Ieri h: 13:20 molto_nuvoloso Molto Nuvoloso 22 16 68 1015 10 S 13
Ieri h: 12:50 molto_nuvoloso Molto Nuvoloso 22 17 73 1015 10 S/SE 11.1
Ieri h: 12:20 molto_nuvoloso Molto Nuvoloso 21 17 77 1015 10 S/SE 13
Ieri h: 11:50 molto_nuvoloso Molto Nuvoloso 21 17 77 1015 10 SE 9.3